Estació meteorològica de Bellmunt (Osona, Osona)

Consulta les dades en temps real de l'estació meteorològica de Bellmunt





Hora UTC 16:30
Temperatura 27.9 ºC
Humitat 53.0 %
Pressió 1014.1 hPa
Pluja 0.0 mm
Velocitat vent 12.9 km/h
Direcció vent S

Dades diàries 2026-09-01



Hora UTC (hivern +1h; estiu +2h)
Temperatura (ºC) Humitat (%) Pressió (hPa) Velocitat vent (km/h) Precipitació (mm)
Hora UTC Aire Humitat Pressió Vel. Dir. Vel. Max Dir. Intent. màx 5 min.
00:05 19.8 66.0 1017.3 0.0 NE 0.0 0.0
00:10 19.7 66.0 1017.3 3.2 E 3.2 0.0
00:15 19.7 66.0 1017.3 4.8 NE 4.8 0.0
00:20 19.7 66.0 1017.4 0.0 ENE 4.8 0.0
00:25 19.7 66.0 1017.4 0.0 ENE 4.8 0.0
00:30 19.8 66.0 1017.3 3.2 NE 3.2 0.0
00:35 19.7 66.0 1017.3 4.8 NE 6.4 0.0
00:40 19.7 66.0 1017.2 0.0 ENE 6.4 0.0
00:45 19.7 66.0 1017.2 0.0 ESE 6.4 0.0
00:50 19.6 66.0 1017.2 0.0 ESE 1.6 0.0
00:55 19.6 66.0 1017.2 0.0 NE 0.0 0.0
01:00 19.6 66.0 1017.2 0.0 NE 0.0 0.0
01:05 19.5 67.0 1017.2 0.0 NE 0.0 0.0
01:10 19.4 67.0 1017.3 0.0 NE 0.0 0.0
01:15 19.4 67.0 1017.2 0.0 E 0.0 0.0
01:20 19.7 67.0 1017.2 4.8 ENE 4.8 0.0
01:25 19.9 66.0 1017.1 3.2 ENE 6.4 0.0
01:30 20.1 66.0 1017.1 1.6 ENE 6.4 0.0
01:35 20.3 65.0 1017.1 0.0 E 4.8 0.0
01:40 20.3 65.0 1017.1 0.0 E 4.8 0.0
01:45 20.3 64.0 1017.1 0.0 E 0.0 0.0
01:50 20.3 64.0 1017.1 0.0 E 0.0 0.0
01:55 20.1 65.0 1017.1 0.0 E 0.0 0.0
02:00 19.9 66.0 1017.0 0.0 N 0.0 0.0
02:05 19.7 66.0 1017.0 0.0 N 0.0 0.0
02:10 19.7 66.0 1017.1 0.0 N 0.0 0.0
02:15 19.7 67.0 1017.0 0.0 S 0.0 0.0
02:20 19.7 66.0 1017.0 0.0 SSE 0.0 0.0
02:25 19.7 66.0 1016.9 0.0 SSE 0.0 0.0
02:30 19.7 66.0 1016.8 0.0 SE 0.0 0.0
02:35 19.9 66.0 1016.8 0.0 ESE 0.0 0.0
02:40 20.1 66.0 1016.8 0.0 N 0.0 0.0
02:45 20.1 65.0 1016.8 0.0 NNE 0.0 0.0
02:50 20.2 65.0 1016.7 4.8 NE 6.4 0.0
02:55 20.3 65.0 1016.6 0.0 NE 6.4 0.0
03:00 20.4 65.0 1016.6 3.2 E 4.8 0.0
03:05 20.5 65.0 1016.6 4.8 ENE 4.8 0.0
03:10 20.4 65.0 1016.5 1.6 ENE 4.8 0.0
03:15 20.4 65.0 1016.4 0.0 ENE 6.4 0.0
03:20 20.5 66.0 1016.3 0.0 ESE 6.4 0.0
03:25 20.4 65.0 1016.4 3.2 SW 4.8 0.0
03:30 20.2 65.0 1016.5 0.0 SW 4.8 0.0
03:35 20.1 66.0 1016.4 0.0 SW 1.6 0.0
03:40 20.1 66.0 1016.2 0.0 WSW 3.2 0.0
03:45 20.0 66.0 1016.2 0.0 WSW 3.2 0.0
03:50 19.9 66.0 1016.2 0.0 WSW 0.0 0.0
03:55 19.8 66.0 1016.2 0.0 WSW 0.0 0.0
04:00 19.9 67.0 1016.1 0.0 WSW 0.0 0.0
04:05 19.9 67.0 1016.1 0.0 WSW 0.0 0.0
04:10 19.8 67.0 1016.1 0.0 WSW 0.0 0.0
04:15 19.8 67.0 1016.1 0.0 WSW 0.0 0.0
04:20 19.8 67.0 1016.0 0.0 WSW 0.0 0.0
04:25 19.8 67.0 1016.0 0.0 WSW 0.0 0.0
04:30 19.9 67.0 1015.9 0.0 WSW 0.0 0.0
04:35 20.1 66.0 1015.9 0.0 WSW 0.0 0.0
04:40 20.1 66.0 1015.9 0.0 WSW 0.0 0.0
04:45 20.0 67.0 1015.9 0.0 WSW 0.0 0.0
04:50 19.8 67.0 1015.9 0.0 WSW 0.0 0.0
04:55 19.8 67.0 1016.0 0.0 WSW 0.0 0.0
05:00 19.8 67.0 1016.1 0.0 WSW 0.0 0.0
05:05 19.7 67.0 1016.1 0.0 WSW 0.0 0.0
05:10 19.6 68.0 1016.0 0.0 WSW 0.0 0.0
05:15 19.7 68.0 1016.0 0.0 WSW 0.0 0.0
05:20 19.5 68.0 1016.1 0.0 WSW 0.0 0.0
05:25 19.3 68.0 1016.1 0.0 WSW 0.0 0.0
05:30 19.3 68.0 1016.1 0.0 WSW 0.0 0.0
05:35 19.1 69.0 1016.1 0.0 WSW 0.0 0.0
05:40 18.9 69.0 1016.2 0.0 WSW 0.0 0.0
05:45 18.9 69.0 1016.2 0.0 WSW 0.0 0.0
05:50 19.0 70.0 1016.2 0.0 WSW 0.0 0.0
05:55 19.2 70.0 1016.2 0.0 WSW 0.0 0.0
06:00 19.3 70.0 1016.2 0.0 WSW 0.0 0.0
06:05 19.4 70.0 1016.2 0.0 WSW 0.0 0.0
06:10 19.6 70.0 1016.3 0.0 WSW 0.0 0.0
06:15 19.8 70.0 1016.3 0.0 WSW 0.0 0.0
06:20 19.9 69.0 1016.2 0.0 WSW 0.0 0.0
06:25 20.0 69.0 1016.2 0.0 WSW 0.0 0.0
06:30 20.2 69.0 1016.3 0.0 WSW 0.0 0.0
06:35 20.4 68.0 1016.3 0.0 WSW 0.0 0.0
06:40 20.4 68.0 1016.4 0.0 WSW 0.0 0.0
06:45 20.6 67.0 1016.5 0.0 WSW 0.0 0.0
06:50 20.6 67.0 1016.4 0.0 WSW 0.0 0.0
06:55 20.8 67.0 1016.4 0.0 WSW 0.0 0.0
07:00 20.9 67.0 1016.5 0.0 WSW 0.0 0.0
07:05 21.1 66.0 1016.5 0.0 WSW 0.0 0.0
07:10 21.2 66.0 1016.5 0.0 WSW 0.0 0.0
07:15 21.4 65.0 1016.5 0.0 WSW 0.0 0.0
07:20 21.6 65.0 1016.5 3.2 WSW 4.8 0.0
07:25 21.7 65.0 1016.5 0.0 SSE 4.8 0.0
07:30 21.8 64.0 1016.5 0.0 SSE 4.8 0.0
07:35 22.1 64.0 1016.6 3.2 SSE 3.2 0.0
07:40 21.8 64.0 1016.6 3.2 SSE 6.4 0.0
07:45 21.8 64.0 1016.7 6.4 SSE 6.4 0.0
07:50 21.9 64.0 1016.7 1.6 SSW 4.8 0.0
07:55 22.1 64.0 1016.7 0.0 WSW 4.8 0.0
08:00 22.4 64.0 1016.6 0.0 WSW 3.2 0.0
08:05 22.9 63.0 1016.5 3.2 NE 4.8 0.0
08:10 23.5 61.0 1016.4 4.8 NW 4.8 0.0
08:15 23.8 62.0 1016.5 1.6 NW 4.8 0.0
08:20 24.3 59.0 1016.4 3.2 N 8.0 0.0
08:25 24.1 59.0 1016.5 3.2 W 8.0 0.0
08:30 24.3 59.0 1016.6 4.8 W 6.4 0.0
08:35 24.4 59.0 1016.6 0.0 W 9.7 0.0
08:40 24.7 57.0 1016.5 6.4 W 6.4 0.0
08:45 24.7 57.0 1016.5 0.0 W 9.7 0.0
08:50 24.9 56.0 1016.5 9.7 W 11.3 0.0
08:55 24.6 56.0 1016.5 4.8 E 11.3 0.0
09:00 24.8 56.0 1016.5 0.0 E 9.7 0.0
09:05 25.6 56.0 1016.4 8.0 N 9.7 0.0
09:10 25.3 55.0 1016.4 8.0 S 16.1 0.0
09:15 25.7 56.0 1016.5 3.2 W 16.1 0.0
09:20 25.7 57.0 1016.4 6.4 W 9.7 0.0
09:25 25.9 55.0 1016.3 6.4 SSW 11.3 0.0
09:30 26.2 56.0 1016.3 1.6 SSE 11.3 0.0
09:35 26.0 54.0 1016.3 6.4 S 11.3 0.0
09:40 25.9 55.0 1016.3 1.6 S 8.0 0.0
09:45 26.3 54.0 1016.3 1.6 W 8.0 0.0
09:50 26.4 53.0 1016.3 8.0 SSE 11.3 0.0
09:55 26.5 54.0 1016.3 4.8 SSW 11.3 0.0
10:00 26.7 53.0 1016.3 1.6 SSW 12.9 0.0
10:05 26.9 52.0 1016.3 6.4 S 11.3 0.0
10:10 26.9 53.0 1016.3 8.0 SSE 11.3 0.0
10:15 26.6 54.0 1016.3 1.6 SSE 8.0 0.0
10:20 26.8 52.0 1016.3 6.4 SW 11.3 0.0
10:25 27.0 53.0 1016.4 3.2 SSW 9.7 0.0
10:30 27.2 52.0 1016.4 8.0 SSW 9.7 0.0
10:35 27.3 53.0 1016.4 8.0 SSW 12.9 0.0
10:40 27.6 52.0 1016.3 11.3 SSW 17.7 0.0
10:45 27.4 53.0 1016.3 1.6 SE 14.5 0.0
10:50 27.7 49.0 1016.3 8.0 ESE 11.3 0.0
10:55 27.8 49.0 1016.3 4.8 SE 11.3 0.0
11:00 28.2 51.0 1016.5 4.8 WSW 9.7 0.0
11:05 28.7 50.0 1016.4 9.7 SSE 14.5 0.0
11:10 28.6 49.0 1016.5 4.8 ENE 14.5 0.0
11:15 28.4 49.0 1016.4 4.8 ENE 12.9 0.0
11:20 28.8 49.0 1016.5 3.2 ESE 12.9 0.0
11:25 28.7 50.0 1016.4 1.6 WSW 16.1 0.0
11:30 28.4 50.0 1016.2 3.2 W 16.1 0.0
11:35 28.4 50.0 1016.2 8.0 ESE 14.5 0.0
11:40 29.5 50.0 1016.1 4.8 S 22.5 0.0
11:45 30.1 48.0 1016.1 4.8 SSW 19.3 0.0
11:50 29.7 48.0 1016.1 8.0 WSW 19.3 0.0
11:55 29.2 48.0 1016.1 9.7 S 17.7 0.0
12:00 28.9 49.0 1016.0 12.9 WSW 19.3 0.0
12:05 28.7 49.0 1015.9 17.7 SW 24.1 0.0
12:10 28.8 49.0 1015.8 11.3 S 24.1 0.0
12:15 29.1 48.0 1015.8 6.4 S 25.7 0.0
12:20 29.2 47.0 1015.9 12.9 SSE 27.4 0.0
12:25 29.6 47.0 1015.9 16.1 SSE 24.1 0.0
12:30 30.2 46.0 1015.8 12.9 SSW 24.1 0.0
12:35 30.4 45.0 1015.8 6.4 SSE 25.7 0.0
12:40 30.2 45.0 1015.8 14.5 S 24.1 0.0
12:45 30.3 45.0 1015.8 6.4 SW 24.1 0.0
12:50 29.8 46.0 1015.7 9.7 SSW 19.3 0.0
12:55 29.1 47.0 1015.8 12.9 SSW 29.0 0.0
13:00 29.5 47.0 1015.7 6.4 S 29.0 0.0
13:05 29.5 47.0 1015.8 9.7 SSE 32.2 0.0
13:10 29.4 47.0 1015.7 16.1 SSE 24.1 0.0
13:15 29.3 48.0 1015.6 12.9 S 25.7 0.0
13:20 29.6 48.0 1015.4 17.7 SSW 25.7 0.0
13:25 29.6 47.0 1015.5 14.5 S 24.1 0.0
13:30 29.3 47.0 1015.4 9.7 SSW 24.1 0.0
13:35 29.1 48.0 1015.3 6.4 SE 30.6 0.0
13:40 29.1 48.0 1015.3 12.9 S 30.6 0.0
13:45 29.3 48.0 1015.3 19.3 SSW 25.7 0.0
13:50 29.6 48.0 1015.3 14.5 SSE 25.7 0.0
13:55 29.2 49.0 1015.2 12.9 SW 22.5 0.0
14:00 28.7 50.0 1015.1 19.3 SSE 29.0 0.0
14:05 28.4 50.0 1015.0 11.3 SSW 29.0 0.0
14:10 28.4 50.0 1014.9 17.7 S 25.7 0.0
14:15 28.9 50.0 1014.9 11.3 S 29.0 0.0
14:20 29.1 50.0 1014.7 14.5 SSW 29.0 0.0
14:25 29.1 50.0 1014.7 14.5 SE 19.3 0.0
14:30 29.4 49.0 1014.6 14.5 SSW 22.5 0.0
14:35 29.3 49.0 1014.5 8.0 SSE 19.3 0.0
14:40 29.2 50.0 1014.6 3.2 SW 20.9 0.0
14:45 29.4 49.0 1014.6 12.9 SSW 20.9 0.0
14:50 29.4 49.0 1014.5 8.0 SSE 20.9 0.0
14:55 29.3 50.0 1014.5 20.9 SSE 22.5 0.0
15:00 29.4 49.0 1014.5 16.1 SSE 22.5 0.0
15:05 29.8 49.0 1014.4 12.9 SSE 16.1 0.0
15:10 29.4 49.0 1014.3 8.0 S 16.1 0.0
15:15 29.1 50.0 1014.2 9.7 SSW 17.7 0.0
15:20 28.9 50.0 1014.2 8.0 SSE 16.1 0.0
15:25 28.6 51.0 1014.3 6.4 S 19.3 0.0
15:30 28.3 52.0 1014.3 4.8 WSW 19.3 0.0
15:35 28.4 51.0 1014.2 12.9 SSW 16.1 0.0
15:40 28.7 52.0 1014.3 8.0 SW 16.1 0.0
15:45 28.9 52.0 1014.2 6.4 SSW 16.1 0.0
15:50 28.9 51.0 1014.3 8.0 S 16.1 0.0
15:55 28.8 51.0 1014.4 11.3 S 24.1 0.0
16:00 28.6 52.0 1014.4 4.8 SW 24.1 0.0
16:05 28.7 52.0 1014.3 9.7 SSE 16.1 0.0
16:10 28.7 51.0 1014.3 4.8 SSW 16.1 0.0
16:15 28.7 52.0 1014.3 3.2 S 16.1 0.0
16:20 28.4 52.0 1014.3 12.9 SSE 19.3 0.0
16:25 27.9 53.0 1014.2 11.3 SSE 19.3 0.0
16:30 27.9 53.0 1014.1 12.9 S 17.7 0.0
Màxima 30.4 70.0 1017.4 20.9 SSE 32.2 0.0
Mínima 18.9 45.0 1014.1
Total 0.0